Location: Caltech
(34.1382°N, 118.1253°W)
Time: 22:20:17
(UTC-07:00)

Iridium 49 - Visible Passes

Search period start: 28 March 2017 00:00
Search period end: 07 April 2017 00:00
Orbit: 776 x 779 km, 86.4° (Epoch: 27 March)

Date Brightness Start Highest point End Pass type
(mag) Time Alt. Az. Time Alt. Az. Time Alt. Az.
28 Mar 6.1 19:28:13 10° N 19:33:27 86° W 19:38:40 10° S visible
29 Mar 9.1 20:37:10 10° NW 20:40:08 15° W 20:43:04 10° WSW visible
30 Mar 9.9 06:12:30 10° E 06:12:36 10° ENE 06:12:42 10° ENE visible
30 Mar 8.2 20:02:25 10° NNW 20:06:53 29° W 20:11:20 10° SW visible
31 Mar 6.9 19:28:24 10° N 19:33:32 57° W 19:38:37 10° SSW visible
02 Apr 9.4 06:09:28 10° ESE 06:12:29 16° E 06:15:30 10° NE visible
02 Apr 9.0 20:03:07 10° NW 20:06:50 20° W 20:10:32 10° SW visible
05 Apr 9.4 20:04:21 10° NW 20:06:45 13° W 20:09:09 10° WSW visible
06 Apr 9.6 05:37:22 10° E 05:39:13 12° E 05:41:03 10° ENE visible
